Time,TemperatureF,DewpointF,PressureIn,WindDirection,WindDirectionDegrees,WindSpeedMPH,WindSpeedGustMPH,Humidity,HourlyPrecipIn,Conditions,Clouds,dailyrainin,SolarRadiationWatts/m^2,SoftwareType,DateUTC
2013-06-15 00:02:00,55.0,36.0,-100.00,SE,143,7.0,12.0,48,0.00,,,-99.99,0.000000,,2013-06-15 05:02:00,
2013-06-15 00:22:00,55.0,35.0,-100.00,SE,140,9.0,12.0,47,0.00,,,0.00,0.000000,,2013-06-15 05:22:00,
2013-06-15 00:34:00,55.0,35.0,-100.00,SE,140,9.0,12.0,47,0.00,,,0.00,0.000000,,2013-06-15 05:34:00,
2013-06-15 00:43:00,55.0,35.0,-100.00,SE,140,9.0,12.0,47,0.00,,,0.00,0.000000,,2013-06-15 05:43:00,
2013-06-15 00:52:00,55.0,35.0,-100.00,SE,140,9.0,12.0,47,0.00,,,0.00,0.000000,,2013-06-15 05:52:00,
2013-06-15 01:02:00,55.0,35.0,-100.00,SE,140,9.0,12.0,47,0.00,,,0.00,0.000000,,2013-06-15 06:02:00,
2013-06-15 01:24:00,55.0,36.0,-100.00,ESE,120,4.0,14.0,48,0.00,,,0.00,0.000000,,2013-06-15 06:24:00,
2013-06-15 01:33:00,55.0,36.0,-100.00,ESE,120,4.0,14.0,48,0.00,,,0.00,0.000000,,2013-06-15 06:33:00,
2013-06-15 01:43:00,55.0,36.0,-100.00,ESE,120,4.0,14.0,48,0.00,,,0.00,0.000000,,2013-06-15 06:43:00,
2013-06-15 01:53:00,55.0,36.0,-100.00,ESE,120,4.0,14.0,48,0.00,,,0.00,0.000000,,2013-06-15 06:53:00,
2013-06-15 02:01:00,55.0,36.0,-100.00,ESE,120,4.0,14.0,48,0.00,,,0.00,0.000000,,2013-06-15 07:01:00,
2013-06-15 02:23:00,52.0,44.0,-100.00,ESE,119,2.0,8.0,74,0.01,,,0.01,0.000000,,2013-06-15 07:23:00,
2013-06-15 02:33:00,52.0,44.0,-100.00,ESE,119,2.0,8.0,74,0.01,,,0.01,0.000000,,2013-06-15 07:33:00,
2013-06-15 02:43:00,52.0,44.0,-100.00,ESE,119,2.0,8.0,74,0.01,,,0.01,0.000000,,2013-06-15 07:43:00,
2013-06-15 02:53:00,52.0,44.0,-100.00,ESE,119,2.0,8.0,74,0.01,,,0.01,0.000000,,2013-06-15 07:53:00,
2013-06-15 03:02:00,52.0,44.0,-100.00,ESE,119,2.0,8.0,74,0.01,,,0.01,0.000000,,2013-06-15 08:02:00,
2013-06-15 03:22:00,52.0,46.0,-100.00,SW,215,5.0,15.0,80,0.03,,,0.04,0.000000,,2013-06-15 08:22:00,
2013-06-15 03:33:00,52.0,46.0,-100.00,SW,215,5.0,15.0,80,0.03,,,0.04,0.000000,,2013-06-15 08:33:00,
2013-06-15 03:43:00,52.0,46.0,-100.00,SW,215,5.0,15.0,80,0.03,,,0.04,0.000000,,2013-06-15 08:43:00,
2013-06-15 03:53:00,52.0,46.0,-100.00,SW,215,5.0,15.0,80,0.03,,,0.04,0.000000,,2013-06-15 08:53:00,
2013-06-15 04:02:00,52.0,46.0,-100.00,SW,215,5.0,15.0,80,0.03,,,0.04,0.000000,,2013-06-15 09:02:00,
2013-06-15 04:22:00,53.0,51.0,-100.00,East,98,3.0,7.0,94,0.05,,,0.09,0.000000,,2013-06-15 09:22:00,
2013-06-15 04:33:00,53.0,51.0,-100.00,East,98,3.0,7.0,94,0.05,,,0.09,0.000000,,2013-06-15 09:33:00,
2013-06-15 04:43:00,53.0,51.0,-100.00,East,98,3.0,7.0,94,0.05,,,0.09,0.000000,,2013-06-15 09:43:00,
2013-06-15 04:52:00,53.0,51.0,-100.00,East,98,3.0,7.0,94,0.05,,,0.09,0.000000,,2013-06-15 09:52:00,
2013-06-15 05:02:00,53.0,51.0,-100.00,East,98,3.0,7.0,94,0.05,,,0.09,0.000000,,2013-06-15 10:02:00,
2013-06-15 05:23:00,53.0,52.0,-100.00,East,100,4.0,7.0,97,0.07,,,0.16,0.000000,,2013-06-15 10:23:00,
2013-06-15 05:34:00,53.0,52.0,-100.00,East,100,4.0,7.0,97,0.07,,,0.16,0.000000,,2013-06-15 10:34:00,
2013-06-15 05:44:00,53.0,52.0,-100.00,East,100,4.0,7.0,97,0.07,,,0.16,0.000000,,2013-06-15 10:44:00,
2013-06-15 05:53:00,53.0,52.0,-100.00,East,100,4.0,7.0,97,0.07,,,0.16,0.000000,,2013-06-15 10:53:00,
2013-06-15 06:02:00,53.0,52.0,-100.00,East,100,4.0,7.0,97,0.07,,,0.16,0.000000,,2013-06-15 11:02:00,
2013-06-15 06:22:00,54.0,53.0,-100.00,SE,135,2.0,5.0,97,0.03,,,0.19,2.000000,,2013-06-15 11:22:00,
2013-06-15 06:33:00,54.0,53.0,-100.00,SE,135,2.0,5.0,97,0.03,,,0.19,2.000000,,2013-06-15 11:33:00,
2013-06-15 06:43:00,54.0,53.0,-100.00,SE,135,2.0,5.0,97,0.03,,,0.19,2.000000,,2013-06-15 11:43:00,
2013-06-15 06:53:00,54.0,53.0,-100.00,SE,135,2.0,5.0,97,0.03,,,0.19,2.000000,,2013-06-15 11:53:00,
2013-06-15 07:01:00,54.0,53.0,-100.00,SE,135,2.0,5.0,97,0.03,,,0.19,2.000000,,2013-06-15 12:01:00,
2013-06-15 07:22:00,59.0,57.0,-100.00,South,179,5.0,8.0,94,0.00,,,0.19,31.000000,,2013-06-15 12:22:00,
2013-06-15 07:33:00,59.0,57.0,-100.00,South,179,5.0,8.0,94,0.00,,,0.19,31.000000,,2013-06-15 12:33:00,
2013-06-15 07:43:00,59.0,57.0,-100.00,South,179,5.0,8.0,94,0.00,,,0.19,31.000000,,2013-06-15 12:43:00,
2013-06-15 07:52:00,59.0,57.0,-100.00,South,179,5.0,8.0,94,0.00,,,0.19,31.000000,,2013-06-15 12:52:00,
2013-06-15 08:02:00,59.0,57.0,-100.00,South,179,5.0,8.0,94,0.00,,,0.19,31.000000,,2013-06-15 13:02:00,
2013-06-15 08:22:00,62.0,59.0,-100.00,SSW,204,5.0,9.0,91,0.00,,,0.19,157.000000,,2013-06-15 13:22:00,
2013-06-15 08:33:00,62.0,59.0,-100.00,SSW,204,5.0,9.0,91,0.00,,,0.19,157.000000,,2013-06-15 13:33:00,
2013-06-15 08:44:00,62.0,59.0,-100.00,SSW,204,5.0,9.0,91,0.00,,,0.19,157.000000,,2013-06-15 13:44:00,
2013-06-15 08:53:00,62.0,59.0,-100.00,SSW,204,5.0,9.0,91,0.00,,,0.19,157.000000,,2013-06-15 13:53:00,
2013-06-15 09:01:00,62.0,59.0,-100.00,SSW,204,5.0,9.0,91,0.00,,,0.19,157.000000,,2013-06-15 14:01:00,
2013-06-15 09:23:00,63.0,59.0,-100.00,SW,231,8.0,12.0,86,0.00,,,0.19,352.000000,,2013-06-15 14:23:00,
2013-06-15 09:34:00,63.0,59.0,-100.00,SW,231,8.0,12.0,86,0.00,,,0.19,352.000000,,2013-06-15 14:34:00,
2013-06-15 09:43:00,63.0,59.0,-100.00,SW,231,8.0,12.0,86,0.00,,,0.19,352.000000,,2013-06-15 14:43:00,
2013-06-15 09:54:00,63.0,59.0,-100.00,SW,231,8.0,12.0,86,0.00,,,0.19,352.000000,,2013-06-15 14:54:00,
2013-06-15 10:02:00,63.0,59.0,-100.00,SW,231,8.0,12.0,86,0.00,,,0.19,352.000000,,2013-06-15 15:02:00,
2013-06-15 10:22:00,67.0,61.0,-100.00,WSW,240,6.0,10.0,82,0.00,,,0.19,409.000000,,2013-06-15 15:22:00,
2013-06-15 10:33:00,67.0,61.0,-100.00,WSW,240,6.0,10.0,82,0.00,,,0.19,409.000000,,2013-06-15 15:33:00,
2013-06-15 10:43:00,67.0,61.0,-100.00,WSW,240,6.0,10.0,82,0.00,,,0.19,409.000000,,2013-06-15 15:43:00,
2013-06-15 10:53:00,67.0,61.0,-100.00,WSW,240,6.0,10.0,82,0.00,,,0.19,409.000000,,2013-06-15 15:53:00,
2013-06-15 11:01:00,67.0,61.0,-100.00,WSW,240,6.0,10.0,82,0.00,,,0.19,409.000000,,2013-06-15 16:01:00,
2013-06-15 11:22:00,69.0,62.0,-100.00,SSW,193,7.0,12.0,79,0.00,,,0.19,548.000000,,2013-06-15 16:22:00,
2013-06-15 11:33:00,69.0,62.0,-100.00,SSW,193,7.0,12.0,79,0.00,,,0.19,548.000000,,2013-06-15 16:33:00,
2013-06-15 11:43:00,69.0,62.0,-100.00,SSW,193,7.0,12.0,79,0.00,,,0.19,548.000000,,2013-06-15 16:43:00,
2013-06-15 11:53:00,69.0,62.0,-100.00,SSW,193,7.0,12.0,79,0.00,,,0.19,548.000000,,2013-06-15 16:53:00,
2013-06-15 12:02:00,69.0,62.0,-100.00,SSW,193,7.0,12.0,79,0.00,,,0.19,548.000000,,2013-06-15 17:02:00,
2013-06-15 12:22:00,74.0,63.0,-100.00,SW,215,9.0,12.0,68,0.00,,,0.19,848.000000,,2013-06-15 17:22:00,
2013-06-15 12:32:00,74.0,63.0,-100.00,SW,215,9.0,12.0,68,0.00,,,0.19,848.000000,,2013-06-15 17:32:00,
2013-06-15 12:43:00,74.0,63.0,-100.00,SW,215,9.0,12.0,68,0.00,,,0.19,848.000000,,2013-06-15 17:43:00,
2013-06-15 12:52:00,74.0,63.0,-100.00,SW,215,9.0,12.0,68,0.00,,,0.19,848.000000,,2013-06-15 17:52:00,
2013-06-15 13:01:00,74.0,63.0,-100.00,SW,215,9.0,12.0,68,0.00,,,0.19,848.000000,,2013-06-15 18:01:00,
2013-06-15 13:22:00,71.0,59.0,-100.00,West,267,8.0,17.0,65,0.00,,,0.19,511.000000,,2013-06-15 18:22:00,
2013-06-15 13:33:00,71.0,59.0,-100.00,West,267,8.0,17.0,65,0.00,,,0.19,511.000000,,2013-06-15 18:33:00,
2013-06-15 13:43:00,71.0,59.0,-100.00,West,267,8.0,17.0,65,0.00,,,0.19,511.000000,,2013-06-15 18:43:00,
2013-06-15 13:53:00,71.0,59.0,-100.00,West,267,8.0,17.0,65,0.00,,,0.19,511.000000,,2013-06-15 18:53:00,
2013-06-15 14:01:00,71.0,59.0,-100.00,West,267,8.0,17.0,65,0.00,,,0.19,511.000000,,2013-06-15 19:01:00,
2013-06-15 14:22:00,72.0,60.0,-100.00,WSW,258,7.0,10.0,65,0.00,,,0.19,331.000000,,2013-06-15 19:22:00,
2013-06-15 14:33:00,72.0,60.0,-100.00,WSW,258,7.0,10.0,65,0.00,,,0.19,331.000000,,2013-06-15 19:33:00,
2013-06-15 14:43:00,72.0,60.0,-100.00,WSW,258,7.0,10.0,65,0.00,,,0.19,331.000000,,2013-06-15 19:43:00,
2013-06-15 14:53:00,72.0,60.0,-100.00,WSW,258,7.0,10.0,65,0.00,,,0.19,331.000000,,2013-06-15 19:53:00,
2013-06-15 15:02:00,72.0,60.0,-100.00,WSW,258,7.0,10.0,65,0.00,,,0.19,331.000000,,2013-06-15 20:02:00,
2013-06-15 15:22:00,70.0,49.0,-100.00,West,266,7.0,17.0,47,0.00,,,0.19,311.000000,,2013-06-15 20:22:00,
2013-06-15 15:33:00,70.0,49.0,-100.00,West,266,7.0,17.0,47,0.00,,,0.19,311.000000,,2013-06-15 20:33:00,
2013-06-15 15:43:00,70.0,49.0,-100.00,West,266,7.0,17.0,47,0.00,,,0.19,311.000000,,2013-06-15 20:43:00,
2013-06-15 15:53:00,70.0,49.0,-100.00,West,266,7.0,17.0,47,0.00,,,0.19,311.000000,,2013-06-15 20:53:00,
2013-06-15 16:01:00,70.0,49.0,-100.00,West,266,7.0,17.0,47,0.00,,,0.19,311.000000,,2013-06-15 21:01:00,
2013-06-15 16:22:00,72.0,56.0,-100.00,SW,217,8.0,13.0,57,0.00,,,0.19,341.000000,,2013-06-15 21:22:00,
2013-06-15 16:34:00,72.0,56.0,-100.00,SW,217,8.0,13.0,57,0.00,,,0.19,341.000000,,2013-06-15 21:34:00,
2013-06-15 16:42:00,72.0,56.0,-100.00,SW,217,8.0,13.0,57,0.00,,,0.19,341.000000,,2013-06-15 21:42:00,
2013-06-15 16:53:00,72.0,56.0,-100.00,SW,217,8.0,13.0,57,0.00,,,0.19,341.000000,,2013-06-15 21:53:00,
2013-06-15 17:01:00,72.0,56.0,-100.00,SW,217,8.0,13.0,57,0.00,,,0.19,341.000000,,2013-06-15 22:01:00,
2013-06-15 17:22:00,75.0,51.0,-100.00,NW,325,7.0,13.0,43,0.00,,,0.19,628.000000,,2013-06-15 22:22:00,
2013-06-15 17:33:00,75.0,51.0,-100.00,NW,325,7.0,13.0,43,0.00,,,0.19,628.000000,,2013-06-15 22:33:00,
2013-06-15 17:43:00,75.0,51.0,-100.00,NW,325,7.0,13.0,43,0.00,,,0.19,628.000000,,2013-06-15 22:43:00,
2013-06-15 17:53:00,75.0,51.0,-100.00,NW,325,7.0,13.0,43,0.00,,,0.19,628.000000,,2013-06-15 22:53:00,
2013-06-15 18:02:00,75.0,51.0,-100.00,NW,325,7.0,13.0,43,0.00,,,0.19,628.000000,,2013-06-15 23:02:00,
2013-06-15 18:22:00,76.0,42.0,-100.00,WNW,282,10.0,16.0,30,0.00,,,0.19,588.000000,,2013-06-15 23:22:00,
2013-06-15 18:33:00,76.0,42.0,-100.00,WNW,282,10.0,16.0,30,0.00,,,0.19,588.000000,,2013-06-15 23:33:00,
2013-06-15 18:43:00,76.0,42.0,-100.00,WNW,282,10.0,16.0,30,0.00,,,0.19,588.000000,,2013-06-15 23:43:00,
2013-06-15 18:53:00,76.0,42.0,-100.00,WNW,282,10.0,16.0,30,0.00,,,0.19,588.000000,,2013-06-15 23:53:00,
2013-06-15 19:22:00,74.0,52.0,-100.00,SW,222,7.0,15.0,46,0.00,,,0.19,414.000000,,2013-06-16 00:22:00,
2013-06-15 19:34:00,74.0,52.0,-100.00,SW,222,7.0,15.0,46,0.00,,,0.19,414.000000,,2013-06-16 00:34:00,
2013-06-15 19:43:00,74.0,52.0,-100.00,SW,222,7.0,15.0,46,0.00,,,0.19,414.000000,,2013-06-16 00:43:00,
2013-06-15 19:52:00,74.0,52.0,-100.00,SW,222,7.0,15.0,46,0.00,,,0.19,414.000000,,2013-06-16 00:52:00,
2013-06-15 20:01:00,74.0,52.0,-100.00,SW,222,7.0,15.0,46,0.00,,,0.19,414.000000,,2013-06-16 01:01:00,
2013-06-15 20:22:00,72.0,52.0,-100.00,SSW,209,6.0,11.0,49,0.00,,,0.19,210.000000,,2013-06-16 01:22:00,
2013-06-15 20:33:00,72.0,52.0,-100.00,SSW,209,6.0,11.0,49,0.00,,,0.19,210.000000,,2013-06-16 01:33:00,
2013-06-15 20:43:00,72.0,52.0,-100.00,SSW,209,6.0,11.0,49,0.00,,,0.19,210.000000,,2013-06-16 01:43:00,
2013-06-15 20:53:00,72.0,52.0,-100.00,SSW,209,6.0,11.0,49,0.00,,,0.19,210.000000,,2013-06-16 01:53:00,
2013-06-15 21:02:00,72.0,52.0,-100.00,SSW,209,6.0,11.0,49,0.00,,,0.19,210.000000,,2013-06-16 02:02:00,
2013-06-15 21:22:00,67.0,50.0,-100.00,SSW,195,5.0,9.0,55,0.00,,,0.19,57.000000,,2013-06-16 02:22:00,
2013-06-15 21:33:00,67.0,50.0,-100.00,SSW,195,5.0,9.0,55,0.00,,,0.19,57.000000,,2013-06-16 02:33:00,
2013-06-15 21:43:00,67.0,50.0,-100.00,SSW,195,5.0,9.0,55,0.00,,,0.19,57.000000,,2013-06-16 02:43:00,
2013-06-15 21:53:00,67.0,50.0,-100.00,SSW,195,5.0,9.0,55,0.00,,,0.19,57.000000,,2013-06-16 02:53:00,
2013-06-15 22:02:00,67.0,50.0,-100.00,SSW,195,5.0,9.0,55,0.00,,,0.19,57.000000,,2013-06-16 03:02:00,
2013-06-15 22:22:00,63.0,50.0,-100.00,SSW,197,5.0,7.0,62,0.00,,,0.19,1.000000,,2013-06-16 03:22:00,
2013-06-15 22:34:00,63.0,50.0,-100.00,SSW,197,5.0,7.0,62,0.00,,,0.19,1.000000,,2013-06-16 03:34:00,
2013-06-15 22:43:00,63.0,50.0,-100.00,SSW,197,5.0,7.0,62,0.00,,,0.19,1.000000,,2013-06-16 03:43:00,
2013-06-15 22:53:00,63.0,50.0,-100.00,SSW,197,5.0,7.0,62,0.00,,,0.19,1.000000,,2013-06-16 03:53:00,
2013-06-15 23:02:00,63.0,50.0,-100.00,SSW,197,5.0,7.0,62,0.00,,,0.19,1.000000,,2013-06-16 04:02:00,
2013-06-15 23:23:00,61.0,50.0,-100.00,SSW,209,7.0,9.0,68,0.00,,,0.19,0.000000,,2013-06-16 04:23:00,
2013-06-15 23:34:00,61.0,50.0,-100.00,SSW,209,7.0,9.0,68,0.00,,,0.19,0.000000,,2013-06-16 04:34:00,
2013-06-15 23:43:00,61.0,50.0,-100.00,SSW,209,7.0,9.0,68,0.00,,,0.19,0.000000,,2013-06-16 04:43:00,
2013-06-15 23:53:00,61.0,50.0,-100.00,SSW,209,7.0,9.0,68,0.00,,,0.19,0.000000,,2013-06-16 04:53:00,